Weather History for KEGI - January, 2014

Change the Weather History Date:

Sunday, January 12, 2014

  Actual Average Record
Temperature  
Mean Temperature 50 °F -  
Max Temperature 64 °F - - ()
Min Temperature 35 °F - - ()
Degree Days  
Heating Degree Days 16    
Moisture  
Dew Point 37 °F    
Average Humidity 68    
Maximum Humidity 95    
Minimum Humidity 35    
Precipitation  
Precipitation 0.00 in - - ()
Sea Level Pressure  
Sea Level Pressure 30.17 in    
Wind  
Wind Speed 2 mph (SW)    
Max Wind Speed 10 mph    
Max Gust Speed -    
Visibility 10 miles    
Events      
T = Trace of Precipitation, MM = Missing Value Source: NWS Daily Summary

Daily Weather History Graph

Daily Weather History Graph

Search for Another Location

Airport or City:

Trip Planner

Search our weather history database for the weather conditions in past years. The results will help you decide how hot, cold, wet, or windy it might be!

Date:

Astronomy

Jan. 12, 2014 Rise Set
Actual Time 6:44 AM CST 5:04 PM CST
Civil Twilight 6:18 AM CST 5:30 PM CST
Nautical Twilight 5:48 AM CST 6:00 PM CST
Astronomical Twilight 5:19 AM CST 6:29 PM CST
Moon 2:30 PM CST (1/12) 3:44 AM CST (1/12)
Length of Visible Light 11h 12m
Length of Day
10h 20m
Waxing Gibbous, 90% of the Moon is Illuminated
Jan 12
Waxing Gibbous
Jan 15
Full
Jan 23
Last Quarter
Jan 30
New
Feb 6
First Quarter

Hourly Weather History & Observations

Time (CST) Temp. Windchill Dew Point Humidity Pressure Visibility Wind Dir Wind Speed Gust Speed Precip Events Conditions
12:58 AM 43.9 °F - 35.1 °F 71% 30.10 in 10.0 mi Calm Calm - N/A   Clear
1:58 AM 41.2 °F - 34.9 °F 78% 30.11 in 10.0 mi Calm Calm - N/A   Clear
2:58 AM 40.8 °F 38.8 °F 33.3 °F 74% 30.12 in 10.0 mi NW 3.5 mph - N/A   Clear
3:58 AM 39.4 °F - 35.6 °F 86% 30.13 in 10.0 mi NW 2.3 mph - N/A   Clear
4:58 AM 37.9 °F - 34.5 °F 87% 30.15 in 10.0 mi SW 2.3 mph - N/A   Clear
5:58 AM 37.0 °F - 33.1 °F 86% 30.16 in 10.0 mi Calm Calm - N/A   Clear
6:58 AM 35.4 °F - 33.8 °F 94% 30.18 in 10.0 mi Calm Calm - N/A   Clear
7:58 AM 42.6 °F - 39.0 °F 87% 30.21 in 10.0 mi Calm Calm - N/A   Clear
8:58 AM 51.4 °F - 37.6 °F 59% 30.24 in 10.0 mi NNW 2.3 mph - N/A   Clear
9:58 AM 56.3 °F - 38.8 °F 52% 30.24 in 10.0 mi Calm Calm - N/A   Clear
10:58 AM 60.1 °F - 36.9 °F 42% 30.22 in 10.0 mi Variable 1.2 mph - N/A   Clear
11:58 AM 62.1 °F - 36.3 °F 38% 30.19 in 10.0 mi Calm Calm - N/A   Clear
12:58 PM 64.9 °F - 36.5 °F 35% 30.17 in 10.0 mi Variable 2.3 mph - N/A   Clear
1:58 PM 64.9 °F - 37.2 °F 36% 30.16 in 10.0 mi NW 2.3 mph - N/A   Clear
2:58 PM 64.6 °F - 42.4 °F 44% 30.15 in 10.0 mi South 5.8 mph - N/A   Clear
3:58 PM 62.8 °F - 41.0 °F 45% 30.16 in 10.0 mi South 10.4 mph - N/A   Clear
4:58 PM 57.4 °F - 39.6 °F 51% 30.16 in 10.0 mi South 8.1 mph - N/A   Clear
5:58 PM 49.8 °F - 38.5 °F 65% 30.17 in 10.0 mi South 5.8 mph - N/A   Clear
6:58 PM 48.2 °F - 39.2 °F 71% 30.19 in 10.0 mi South 5.8 mph - N/A   Clear
7:58 PM 45.7 °F 44.4 °F 39.2 °F 78% 30.19 in 10.0 mi South 3.5 mph - N/A   Clear
8:58 PM 42.4 °F 39.6 °F 39.0 °F 88% 30.19 in 10.0 mi South 4.6 mph - N/A   Clear
9:58 PM 42.4 °F 40.7 °F 38.7 °F 86% 30.18 in 10.0 mi South 3.5 mph - N/A   Clear
10:58 PM 40.6 °F - 38.5 °F 92% 30.18 in 10.0 mi WSW 1.2 mph - N/A   Clear
11:58 PM 39.7 °F - 38.3 °F 95% 30.16 in 10.0 mi Calm Calm - N/A   Partly Cloudy